Location: Buckeye Ditch
(40.9104°N, 122.9517°W)
Time: 18:53:46
(UTC+00:00)

SR - Visible Passes

Search period start: 19 May 2025 00:00
Search period end: 29 May 2025 00:00
Orbit: 569 x 857 km, 66.7° (Epoch: 19 May)

Date Brightness Start Highest point End Pass type
(mag) Time Alt. Az. Time Alt. Az. Time Alt. Az.
19 May ? 07:22:02 20° E 07:22:02 20° E 07:24:37 10° ENE visible
19 May ? 09:01:06 55° WNW 09:01:34 57° NW 09:07:16 10° NNE visible
19 May ? 10:42:03 10° WNW 10:44:34 13° NW 10:47:05 10° N visible
20 May ? 08:07:53 66° ENE 08:07:53 66° ENE 08:13:01 10° NNE visible
20 May ? 09:46:56 16° W 09:49:35 22° NW 09:54:01 10° N visible
21 May ? 07:14:38 30° E 07:14:38 30° E 07:18:21 10° NE visible
21 May ? 08:53:40 35° W 08:54:53 39° NW 09:00:17 10° NNE visible
22 May ? 06:21:17 14° E 06:21:17 14° E 06:22:46 10° ENE visible
22 May ? 08:00:20 76° WNW 08:00:25 77° WNW 08:06:14 10° NNE visible
22 May ? 09:39:38 10° WNW 09:43:08 16° NW 09:46:38 10° N visible
23 May ? 07:06:56 50° E 07:06:56 50° E 07:11:49 10° NE visible
23 May ? 08:45:58 22° W 08:48:16 28° NW 08:53:12 10° N visible
24 May ? 06:13:25 24° E 06:13:25 24° E 06:16:51 10° NE visible
24 May ? 07:52:27 44° W 07:53:39 52° NW 07:59:18 10° NNE visible
24 May ? 09:34:42 10° WNW 09:36:46 12° NW 09:38:49 10° NNW visible
25 May ? 05:19:48 10° E 05:19:48 10° E 05:20:06 10° E visible
25 May ? 06:58:49 74° S 06:59:18 80° ESE 07:05:06 10° NNE visible
25 May ? 08:37:50 11° W 08:41:44 20° NW 08:45:57 10° N visible
26 May ? 06:05:03 39° ESE 06:05:10 39° ESE 06:10:30 10° NE visible
26 May ? 07:44:04 23° WSW 07:46:59 36° NW 07:52:16 10° NNE visible
27 May ? 05:11:06 18° ESE 05:11:16 18° ESE 05:15:06 10° ENE visible
27 May ? 06:50:06 36° SW 06:52:29 70° WNW 06:58:15 10° NNE visible
27 May ? 08:32:04 10° WNW 08:35:17 15° NW 08:38:29 10° N visible
28 May ? 05:55:51 34° S 05:58:12 59° ESE 06:03:53 10° NE visible
28 May ? 07:35:35 10° WSW 07:40:22 26° NW 07:45:07 10° N visible
